Regional Weather Roundup
Issued by NWS Albany, NY

Home | Current Version | Previous Version | Text Only | Print | Product List | Glossary On
Versions: 1 2 3 4 5 6 7 8 9 10 11 12 13 14 15 16 17 18 19 20 21 22 23 24 25 26 27 28 29 30 31 32 33 34 35 36 37 38 39 40 41 42 43 44 45 46 47 48 49 50
000
ASUS41 KALY 172110
RWRALY

NEW YORK STATE HOURLY WEATHER ROUNDUP
NATIONAL WEATHER SERVICE ALBANY NY
500 PM EDT TUE OCT 17 2017

NOTE: "FAIR" INDICATES FEW OR NO CLOUDS BELOW 12,000 FEET WITH NO
SIGNIFICANT WEATHER AND/OR NO OBSTRUCTIONS TO VISIBILITY.

NYZ032-033-038>043-046>054-057>066-NYZ062>081-082-084-172200-
EAST


CITY           SKY/WX    TMP DP  RH WIND       PRES   REMARKS
ALBANY         SUNNY     56  31  38 S8        30.20F
GLENS FALLS    SUNNY     56  28  34 SW13G22   30.16F
POUGHKEEPSIE   SUNNY     58  30  34 S8        30.21F
NEWBURGH       SUNNY     59  34  38 SW9       30.23F
MONTGOMERY     SUNNY     59  33  37 S7        30.21F
WHITE PLAINS   SUNNY     57  29  34 S5        30.24F
ISLIP          MOSUNNY   57  29  34 SW6       30.26S
NEW YORK CITY  SUNNY     60  29  30 SW6       30.24F
CENTRAL PARK   SUNNY     58  32  37 CALM      30.27F
$$

NYZ005>009-017-018-044>046-055-056-172200-
CENTRAL


CITY           SKY/WX    TMP DP  RH WIND       PRES   REMARKS
FULTON         SUNNY     61  40  45 S8        30.12F
SYRACUSE       MOSUNNY   60  39  45 SW12      30.14F
ROME           SUNNY     60  37  42 SW7       30.16F
ELMIRA         SUNNY     62  37  39 SW10      30.17S
BINGHAMTON     SUNNY     55  31  39 SW9       30.19F
MONTICELLO     SUNNY     55  24  30 W7        30.22F
$$

NYZ026>034-041>043-087-172200-
NORTH


CITY           SKY/WX    TMP DP  RH WIND       PRES   REMARKS
WATERTOWN      SUNNY     59  42  53 SW16G23   30.09F
FORT DRUM      NOT AVBL
OGDENSBURG     FAIR      60  44  57 SW18G35   30.04F
MASSENA        CLOUDY    58  42  55 S25G32    30.02F
SARANAC LAKE   MOSUNNY   52  33  48 SW14G23   30.07F
PLATTSBURGH    SUNNY     55  34  45 S8        30.07F
$$

NYZ001>004-010>016-019>021-085-172200-
WEST


CITY           SKY/WX    TMP DP  RH WIND       PRES   REMARKS
NIAGARA FALLS  MOSUNNY   64  46  52 SW22G37   30.10F
BUFFALO        MOSUNNY   61  43  51 SW22G32   30.12F
DUNKIRK        SUNNY     62  44  51 SW14      30.15F
JAMESTOWN      SUNNY     59  37  44 SW15      30.19F
WELLSVILLE     SUNNY     59  34  39 W12       30.20S
ROCHESTER      MOSUNNY   64  38  38 W17G30    30.12F
$$

             KEY
       WCI = WIND CHILL INDEX
       VSB = VISIBILITY
       HX  = HEAT INDEX
$$



USA.gov is the U.S. government's official web portal to all federal, state and local government web resources and services.